Date,TemperatureHighF,TemperatureAvgF,TemperatureLowF,DewpointHighF,DewpointAvgF,DewpointLowF,HumidityHigh,HumidityAvg,HumidityLow,PressureMaxIn,PressureMinIn,WindSpeedMaxMPH,WindSpeedAvgMPH,GustSpeedMaxMPH,PrecipitationSumIn
2013-9-1,79,71,64,-100,-100,-100,0,0,100,0.00,40.00,0,-999,0,0.00
2013-9-2,73,69,64,-100,-100,-100,0,0,100,0.00,40.00,0,-999,0,0.40
2013-9-3,70,63,59,-100,-100,-100,0,0,100,0.00,40.00,0,-999,0,0.37
2013-9-4,71,62,56,-100,-100,-100,0,0,100,0.00,40.00,0,-999,0,0.02
2013-9-5,60,54,40,-100,-100,-100,0,0,100,0.00,40.00,0,-999,0,0.01
2013-9-6,66,48,33,-100,-100,-100,0,0,100,0.00,40.00,0,-999,0,0.00
2013-9-7,71,55,41,-100,-100,-100,0,0,100,0.00,40.00,0,-999,0,0.00
2013-9-8,58,52,38,-100,-100,-100,0,0,100,0.00,40.00,0,-999,0,0.08
2013-9-9,66,47,33,-100,-100,-100,0,0,100,0.00,40.00,0,-999,0,0.01
2013-9-10,63,54,45,-100,-100,-100,0,0,100,0.00,40.00,0,-999,0,0.02
2013-9-11,89,72,60,-100,-100,-100,0,0,100,0.00,40.00,0,-999,0,1.56
2013-9-12,73,66,63,-100,-100,-100,0,0,100,0.00,40.00,0,-999,0,1.63
2013-9-13,63,58,53,-100,-100,-100,0,0,100,0.00,40.00,0,-999,0,0.92
2013-9-14,56,52,48,-100,-100,-100,0,0,100,0.00,40.00,0,-999,0,0.41
2013-9-15,65,51,41,-100,-100,-100,0,0,100,0.00,40.00,0,-999,0,0.03
2013-9-16,52,48,38,-100,-100,-100,0,0,100,0.00,40.00,0,-999,0,0.09
2013-9-17,61,46,33,-100,-100,-100,0,0,100,0.00,40.00,0,-999,0,0.01
2013-9-18,43,36,35,-100,-100,-100,0,0,100,0.00,40.00,0,-999,0,0.00
2013-9-19,75,52,37,-100,-100,-100,0,0,100,0.00,40.00,0,-999,0,0.00
2013-9-20,78,55,43,-100,-100,-100,0,0,100,0.00,40.00,0,-999,0,0.00
2013-9-21,73,60,44,-100,-100,-100,0,0,100,0.00,40.00,0,-999,0,0.00
2013-9-22,66,56,46,-100,-100,-100,0,0,100,0.00,40.00,0,-999,0,0.66
2013-9-23,47,45,43,-100,-100,-100,0,0,100,0.00,40.00,0,-999,0,0.01
2013-9-24,50,47,43,-100,-100,-100,0,0,100,0.00,40.00,0,-999,0,0.00
2013-9-25,53,46,38,-100,-100,-100,0,0,100,0.00,40.00,0,-999,0,0.00
2013-9-26,56,49,42,-100,-100,-100,0,0,100,0.00,40.00,0,-999,0,0.00
2013-9-27,67,56,47,-100,-100,-100,0,0,100,0.00,40.00,0,-999,0,0.00
2013-9-28,74,53,41,-100,-100,-100,0,0,100,0.00,40.00,0,-999,0,0.00
2013-9-29,71,53,43,-100,-100,-100,0,0,100,0.00,40.00,0,-999,0,0.00
2013-9-30,72,53,43,-100,-100,-100,0,0,100,0.00,40.00,0,-999,0,0.00